Stations météo

réclame
Mon MeteoGroup
Brescia/Ghedi, Italie (16088): Température de l'air & dewpoint: 08.08.2018 23:00:00 - 14.08.2018 23:00:00 (CEST)Brescia/Ghedi, Italie (16088): Vitesse du vent: 08.08.2018 23:00:00 - 14.08.2018 23:00:00 (CEST)Brescia/Ghedi, Italie (16088): Direction du vent: 08.08.2018 23:00:00 - 14.08.2018 23:00:00 (CEST)Brescia/Ghedi, Italie (16088): reduced air pressure: 08.08.2018 23:00:00 - 14.08.2018 23:00:00 (CEST)Brescia/Ghedi, Italie (16088): visibility: 08.08.2018 23:00:00 - 14.08.2018 23:00:00 (CEST)
Date & Time tt [°C] td [°C] ff [km/h] ff [knt] dd ppp [hPa] vv [km]
14.08.2018 23:00:00 20,2 19,4 4 2 ENE 1013,8 6
14.08.2018 22:00:00 20,2 19,2 5 3 ESE 1013,0 5
14.08.2018 21:00:00 21,0 19,8 2 1 S 1012,7 4,5
14.08.2018 20:00:00 21,5 19,4 8 4 ESE 1012,3 5
14.08.2018 19:00:00 22,8 19,6 4 2 S 1012,1 5
14.08.2018 18:00:00 21,5 18,9 4 2 SW 1012,2 5
14.08.2018 17:00:00 21,2 19,1 5 3 S 1012,2 5
14.08.2018 16:00:00 22,0 19,4 9 5 S 1012,3 5
14.08.2018 15:00:00 - - - - - - -
14.08.2018 14:00:00 22,8 19,2 9 5 E 1012,5 5
14.08.2018 13:00:00 22,8 19,6 11 6 ESE 1012,7 6
14.08.2018 12:00:00 22,0 19,9 9 5 E 1012,7 5
14.08.2018 11:00:00 21,2 19,1 8 4 E 1012,7 5
14.08.2018 10:00:00 20,2 18,2 4 2 N 1012,0 5
14.08.2018 09:00:00 20,0 18,7 5 3 NE 1011,7 5
14.08.2018 08:00:00 19,6 18,6 4 2 SE 1011,4 5
14.08.2018 07:00:00 19,0 18,2 2 1 NW 1011,4 5
14.08.2018 06:00:00 19,0 18,2 2 1 S 1011,1 5
14.08.2018 05:00:00 19,0 18,0 4 2 SW 1010,5 5
14.08.2018 04:00:00 19,0 18,2 2 1 NE 1010,5 6
14.08.2018 03:00:00 19,0 18,2 5 3 ENE 1010,6 6
14.08.2018 02:00:00 19,1 18,3 5 3 SW 1011,0 6
14.08.2018 01:00:00 19,3 18,5 4 2 WSW 1011,5 10
14.08.2018 00:00:00 19,8 18,8 8 4 WNW 1011,5 10
13.08.2018 23:00:00 19,9 19,1 5 3 WSW 1011,4 10
13.08.2018 22:00:00 20,0 19,5 5 3 WSW 1011,4 8
13.08.2018 21:00:00 20,0 19,0 11 6 W 1011,2 6
13.08.2018 20:00:00 20,2 19,0 5 3 SSE 1010,7 10
13.08.2018 19:00:00 20,2 17,6 18 10 WNW 1010,9 5
13.08.2018 18:00:00 21,2 19,9 13 7 W 1011,0 4,0
13.08.2018 17:00:00 29,8 14,4 21 11 W 1010,8 8
13.08.2018 16:00:00 30,2 13,9 8 4 WSW 1011,1 10
13.08.2018 15:00:00 31,0 14,2 8 4 W 1011,5 10
13.08.2018 14:00:00 30,0 14,5 8 4 SSW 1012,4 10
13.08.2018 13:00:00 30,2 14,3 5 3 S 1012,8 10
13.08.2018 12:00:00 29,8 15,9 8 4 WSW 1013,0 10
13.08.2018 11:00:00 27,0 16,0 8 4 ESE 1013,1 10
13.08.2018 10:00:00 24,8 17,8 2 1 WSW 1013,9 8
13.08.2018 09:00:00 21,8 17,0 4 2 NW 1014,0 10
13.08.2018 08:00:00 19,6 18,4 4 2 NW 1014,6 8
13.08.2018 07:00:00 18,8 18,0 2 1 N 1014,5 7
13.08.2018 06:00:00 19,0 18,2 8 4 W 1014,6 10
13.08.2018 05:00:00 19,0 18,2 4 2 WNW 1014,6 10
13.08.2018 04:00:00 19,4 18,6 4 2 NNE 1014,9 10
13.08.2018 03:00:00 20,2 19,4 2 1 N 1015,1 10
13.08.2018 02:00:00 20,8 19,8 2 1 N 1015,1 10
13.08.2018 01:00:00 21,0 19,7 4 2 N 1015,1 10
13.08.2018 00:00:00 21,4 19,7 8 4 N 1015,1 10
12.08.2018 23:00:00 22,0 19,9 4 2 N 1015,1 10
12.08.2018 22:00:00 22,8 20,0 4 2 WNW 1015,1 10
12.08.2018 21:00:00 23,8 19,7 9 5 N 1015,0 10
12.08.2018 20:00:00 23,8 18,9 8 4 NNW 1015,2 10
12.08.2018 19:00:00 23,5 17,7 15 8 NW 1016,1 10
12.08.2018 18:00:00 31,0 16,6 8 4 S 1015,4 10
12.08.2018 17:00:00 31,2 16,0 11 6 SE 1015,6 20
12.08.2018 16:00:00 31,0 16,2 13 7 SSE 1016,6 20
12.08.2018 15:00:00 29,9 15,6 15 8 E 1016,9 20
12.08.2018 14:00:00 29,6 14,6 15 8 SE 1017,4 20
12.08.2018 13:00:00 28,9 15,1 18 10 SE 1018,0 10
12.08.2018 12:00:00 27,2 17,1 15 8 E 1018,5 10
12.08.2018 11:00:00 25,1 19,0 8 4 NNE 1018,6 10
12.08.2018 10:00:00 23,1 19,7 4 2 W 1018,3 10
12.08.2018 09:00:00 23,0 20,7 4 2 ENE 1018,1 10
12.08.2018 08:00:00 22,0 20,3 4 2 E 1018,4 10
12.08.2018 07:00:00 20,2 18,5 4 2 SSW 1017,9 10
12.08.2018 06:00:00 20,8 18,7 4 2 N 1017,1 10
12.08.2018 05:00:00 21,0 17,8 4 2 E 1017,0 10
12.08.2018 04:00:00 21,5 17,9 5 3 S 1017,2 10
12.08.2018 03:00:00 21,5 17,9 8 4 E 1017,5 10
12.08.2018 02:00:00 22,8 19,2 8 4 E 1017,4 10
12.08.2018 01:00:00 22,8 19,2 8 4 E 1017,4 10
12.08.2018 00:00:00 23,0 19,8 8 4 E 1017,2 10
11.08.2018 23:00:00 23,0 20,3 8 4 E 1017,0 10
11.08.2018 22:00:00 26,2 22,5 4 2 N 1016,0 10
11.08.2018 21:00:00 28,0 17,2 5 3 W 1015,8 10
11.08.2018 20:00:00 29,5 16,0 5 3 NW 1015,7 10
11.08.2018 19:00:00 29,8 15,9 8 4 NW 1015,8 10
11.08.2018 18:00:00 31,4 16,6 5 3 NNW 1015,8 10
11.08.2018 17:00:00 32,4 17,1 11 6 NW 1015,9 10
11.08.2018 16:00:00 32,0 16,7 5 3 WSW 1016,3 10
11.08.2018 15:00:00 32,0 16,7 8 4 WSW 1016,9 10
11.08.2018 14:00:00 31,2 16,4 8 4 SW 1017,4 10
11.08.2018 13:00:00 30,0 18,1 9 5 WSW 1017,9 10
11.08.2018 12:00:00 29,0 18,8 5 3 SW 1018,3 10
11.08.2018 11:00:00 27,8 18,8 4 2 W 1018,4 10
11.08.2018 10:00:00 26,6 18,2 4 2 SW 1018,2 10
11.08.2018 09:00:00 24,4 19,7 2 1 NW 1018,3 10
11.08.2018 08:00:00 21,1 19,2 2 1 NE 1018,3 10
11.08.2018 07:00:00 19,8 18,3 4 2 NNW 1018,3 10
11.08.2018 06:00:00 19,9 18,4 4 2 N 1017,9 10
11.08.2018 05:00:00 20,0 19,0 4 2 NNW 1017,9 10
11.08.2018 04:00:00 20,0 19,0 8 4 NE 1018,5 10
11.08.2018 03:00:00 21,1 20,3 4 2 NNW 1018,4 10
11.08.2018 02:00:00 21,2 19,9 5 3 ENE 1018,4 10
11.08.2018 01:00:00 21,7 20,5 4 2 ENE 1018,4 10
11.08.2018 00:00:00 22,9 20,6 4 2 ESE 1018,3 10
10.08.2018 23:00:00 23,2 20,3 4 2 NNE 1018,2 10
10.08.2018 22:00:00 25,5 19,9 2 1 SSW 1018,2 10
10.08.2018 21:00:00 29,0 18,5 2 1 S 1017,7 10
10.08.2018 20:00:00 30,0 16,8 4 2 WSW 1017,7 10
10.08.2018 19:00:00 30,6 16,6 5 3 WSW 1017,9 10
10.08.2018 18:00:00 31,0 15,8 8 4 SSW 1017,9 10
10.08.2018 17:00:00 30,8 15,7 9 5 W 1018,3 10
10.08.2018 16:00:00 30,2 15,1 8 4 WSW 1018,9 10
10.08.2018 15:00:00 30,0 16,8 8 4 SSW 1019,1 10
10.08.2018 14:00:00 29,0 16,9 8 4 W 1019,4 10
10.08.2018 13:00:00 27,2 16,5 5 3 WSW 1019,6 10
10.08.2018 12:00:00 26,0 17,6 5 3 SSW 1019,6 10
10.08.2018 11:00:00 25,0 21,3 8 4 WNW 1019,6 10
10.08.2018 10:00:00 22,8 20,2 5 3 W 1019,4 10
10.08.2018 09:00:00 20,2 19,2 8 4 WNW 1019,1 10
10.08.2018 08:00:00 20,0 19,0 8 4 W 1018,5 10
10.08.2018 07:00:00 19,4 18,7 4 2 SSW 1018,3 10
10.08.2018 06:00:00 18,8 18,2 5 3 NNE 1017,4 10
10.08.2018 05:00:00 19,8 19,0 4 2 NW 1017,4 10
10.08.2018 04:00:00 19,8 19,1 5 3 N 1017,2 10
10.08.2018 03:00:00 20,2 19,5 5 3 WNW 1017,8 10
10.08.2018 02:00:00 20,2 19,2 8 4 NNW 1017,7 10
10.08.2018 01:00:00 19,8 18,5 4 2 S 1017,6 10
10.08.2018 00:00:00 19,6 17,9 5 3 SSE 1017,6 10
09.08.2018 23:00:00 19,6 17,4 16 9 E 1017,5 10
09.08.2018 22:00:00 19,6 17,9 5 3 NE 1017,5 10
09.08.2018 21:00:00 19,8 17,9 4 2 E 1017,7 6
09.08.2018 20:00:00 31,0 16,2 31 17 W 1015,6 5
09.08.2018 19:00:00 33,8 14,3 4 2 SW 1014,4 10
09.08.2018 18:00:00 34,0 15,5 5 3 SW 1014,1 10
09.08.2018 17:00:00 33,3 15,8 4 2 SW 1014,1 10
09.08.2018 16:00:00 32,5 15,9 5 3 SSW 1014,9 10
09.08.2018 15:00:00 31,7 18,7 8 4 WSW 1015,3 10
09.08.2018 14:00:00 31,5 18,8 8 4 SSW 1015,8 10
09.08.2018 13:00:00 30,5 17,9 5 3 SW 1016,1 10
09.08.2018 12:00:00 29,9 18,0 8 4 W 1016,5 10
09.08.2018 11:00:00 28,5 16,8 4 2 E 1016,5 10
09.08.2018 10:00:00 26,7 16,9 5 3 SSW 1016,6 10
09.08.2018 09:00:00 23,9 18,1 4 2 ENE 1016,4 10
09.08.2018 08:00:00 22,6 17,7 4 2 NNE 1016,5 10
09.08.2018 07:00:00 21,0 19,1 2 1 N 1016,0 10
09.08.2018 06:00:00 21,0 19,1 4 2 E 1015,6 10
09.08.2018 05:00:00 21,8 20,1 4 2 N 1015,6 10
09.08.2018 04:00:00 22,0 20,3 4 2 N 1015,6 10
09.08.2018 03:00:00 22,4 20,1 5 3 E 1015,4 10
09.08.2018 02:00:00 22,8 20,5 4 2 SE 1015,3 10
09.08.2018 01:00:00 23,0 19,6 9 5 ENE 1015,3 10
09.08.2018 00:00:00 23,2 19,6 4 2 ENE 1015,2 10
08.08.2018 23:00:00 23,9 20,2 9 5 E 1015,1 10

tt = Température de l'air
td = dewpoint
ff = Vitesse du vent
dd = Direction du vent
ppp = reduced air pressure
vv = visibility

stations d'obs. à proximité